Total_Precipitation_Accumulation
0.37 0.56 0.78 0.88 0.92 0.82 0.65 0.52 0.51 0.48 0.47 0.45 0.41 0.39 0.35 0.38 0.31 0.26 0.26 0.26 0.27 0.26 0.29 0.32 0.35 0.35 0.31 0.29 0.32 0.38 0.43 0.53 0.64 0.86 1.19 1.62 1.84 1.97 1.99 2.01 1.90 1.70 1.48 1.49
0.44 0.42 0.36 0.45 0.50 0.57 0.55 0.50 0.47 0.46 0.42 0.38 0.28 0.24 0.25 0.23 0.18 0.17 0.18 0.19 0.22 0.23 0.23 0.21 0.22 0.25 0.21 0.18 0.19 0.28 0.34 0.43 0.57 0.85 1.18 1.53 1.89 1.97 2.00 2.01 1.97 1.84 1.71 1.72
0.36 0.32 0.31 0.38 0.45 0.49 0.48 0.49 0.47 0.48 0.47 0.36 0.28 0.24 0.22 0.17 0.15 0.15 0.15 0.16 0.20 0.20 0.20 0.20 0.18 0.17 0.17 0.15 0.14 0.19 0.25 0.39 0.67 1.01 1.34 1.53 1.83 1.95 2.02 1.98 1.99 2.01 1.97 1.88
0.45 0.33 0.31 0.36 0.38 0.38 0.46 0.35 0.31 0.34 0.42 0.39 0.29 0.31 0.24 0.18 0.20 0.21 0.21 0.21 0.24 0.25 0.21 0.20 0.20 0.16 0.13 0.13 0.12 0.15 0.22 0.41 0.75 1.09 1.35 1.59 1.94 2.06 2.04 2.07 2.06 2.08 2.10 2.07
0.43 0.30 0.29 0.29 0.27 0.26 0.36 0.28 0.26 0.26 0.30 0.31 0.21 0.23 0.25 0.21 0.24 0.30 0.30 0.29 0.29 0.26 0.21 0.18 0.16 0.16 0.14 0.14 0.15 0.21 0.35 0.54 0.80 1.01 1.25 1.61 1.87 1.99 2.15 2.09 2.07 2.08 2.15 2.17
0.39 0.26 0.24 0.24 0.23 0.20 0.23 0.25 0.27 0.26 0.26 0.27 0.14 0.20 0.31 0.28 0.24 0.26 0.27 0.26 0.26 0.24 0.22 0.21 0.19 0.18 0.19 0.21 0.26 0.34 0.50 0.66 0.87 1.04 1.23 1.42 1.68 1.83 1.98 2.08 2.02 2.03 2.10 2.20
0.31 0.24 0.18 0.15 0.20 0.18 0.19 0.29 0.40 0.39 0.42 0.33 0.17 0.26 0.40 0.30 0.22 0.22 0.23 0.24 0.25 0.26 0.28 0.33 0.33 0.36 0.42 0.46 0.49 0.57 0.67 0.78 0.89 0.98 1.08 1.14 1.31 1.48 1.55 1.72 1.81 1.95 1.97 2.02
0.22 0.20 0.14 0.10 0.12 0.14 0.14 0.23 0.38 0.42 0.37 0.32 0.28 0.44 0.48 0.32 0.25 0.25 0.25 0.28 0.31 0.39 0.45 0.55 0.63 0.71 0.77 0.76 0.75 0.81 0.87 0.85 0.85 0.90 0.96 0.98 1.05 1.13 1.22 1.27 1.32 1.51 1.68 1.72
0.18 0.16 0.10 0.10 0.11 0.13 0.12 0.15 0.21 0.28 0.24 0.24 0.28 0.48 0.48 0.35 0.33 0.33 0.34 0.36 0.45 0.64 0.74 0.84 0.93 0.94 0.94 0.91 0.86 0.87 0.90 0.87 0.85 0.86 0.85 0.81 0.80 0.87 0.98 1.01 1.09 1.16 1.26 1.28
0.17 0.14 0.10 0.09 0.11 0.10 0.11 0.16 0.23 0.40 0.49 0.43 0.39 0.53 0.56 0.48 0.41 0.39 0.43 0.52 0.68 0.95 1.09 1.22 1.30 1.20 1.11 1.10 1.14 1.03 0.93 0.86 0.83 0.84 0.83 0.77 0.73 0.78 0.82 0.83 0.90 0.89 0.91 0.94
0.12 0.13 0.10 0.08 0.09 0.10 0.14 0.22 0.32 0.50 0.58 0.71 0.79 0.89 0.72 0.62 0.61 0.69 0.78 0.86 1.07 1.33 1.48 1.57 1.58 1.46 1.25 1.12 1.11 1.05 0.94 0.82 0.72 0.71 0.77 0.77 0.72 0.73 0.78 0.77 0.73 0.67 0.70 0.78
0.11 0.17 0.14 0.08 0.11 0.15 0.26 0.41 0.56 0.87 0.86 0.75 0.92 1.11 0.85 0.71 0.73 0.77 0.83 0.96 1.16 1.30 1.36 1.39 1.33 1.31 1.20 1.11 1.02 0.96 0.86 0.72 0.67 0.71 0.73 0.75 0.67 0.62 0.65 0.66 0.68 0.59 0.56 0.62
0.18 0.28 0.30 0.23 0.25 0.33 0.40 0.48 0.57 0.69 0.84 0.90 1.07 1.24 0.93 0.71 0.70 0.77 0.89 0.94 0.97 0.95 1.01 1.10 1.15 1.06 1.01 0.94 0.88 0.95 0.96 0.84 0.82 0.85 0.91 0.84 0.70 0.66 0.65 0.61 0.64 0.59 0.56 0.61
0.22 0.30 0.36 0.42 0.45 0.50 0.54 0.48 0.46 0.58 0.79 0.86 0.95 0.98 0.75 0.63 0.63 0.66 0.73 0.74 0.78 0.79 0.81 0.86 0.93 0.89 0.90 0.84 0.81 0.90 0.95 0.96 1.03 1.10 1.06 0.90 0.77 0.70 0.64 0.60 0.56 0.57 0.59 0.62
0.15 0.17 0.18 0.19 0.18 0.26 0.45 0.58 0.52 0.55 0.64 0.87 0.76 0.61 0.55 0.52 0.54 0.55 0.57 0.60 0.57 0.58 0.57 0.56 0.55 0.57 0.63 0.63 0.61 0.65 0.72 0.83 0.98 1.06 0.94 0.80 0.68 0.58 0.53 0.56 0.53 0.54 0.61 0.64
0.07 0.06 0.04 0.05 0.08 0.16 0.39 0.50 0.53 0.53 0.50 0.50 0.42 0.40 0.31 0.30 0.35 0.34 0.34 0.37 0.34 0.33 0.33 0.31 0.28 0.28 0.33 0.33 0.35 0.40 0.48 0.62 0.85 0.93 0.81 0.64 0.56 0.53 0.49 0.48 0.45 0.44 0.47 0.53
0.03 0.06 0.07 0.06 0.08 0.16 0.39 0.42 0.47 0.36 0.21 0.18 0.23 0.24 0.17 0.19 0.27 0.26 0.28 0.30 0.26 0.24 0.24 0.24 0.23 0.20 0.20 0.20 0.23 0.31 0.37 0.50 0.60 0.63 0.58 0.48 0.42 0.40 0.39 0.38 0.38 0.41 0.43 0.47
0.04 0.09 0.13 0.10 0.13 0.35 0.60 0.46 0.39 0.31 0.17 0.11 0.11 0.11 0.12 0.16 0.21 0.20 0.23 0.28 0.25 0.21 0.21 0.21 0.21 0.20 0.21 0.22 0.23 0.33 0.37 0.39 0.45 0.52 0.51 0.44 0.39 0.36 0.36 0.34 0.36 0.44 0.45 0.44
0.12 0.14 0.18 0.19 0.21 0.38 0.46 0.31 0.26 0.34 0.33 0.12 0.08 0.08 0.10 0.12 0.15 0.13 0.14 0.18 0.17 0.14 0.13 0.13 0.13 0.12 0.12 0.12 0.11 0.14 0.17 0.23 0.27 0.30 0.35 0.34 0.29 0.31 0.34 0.34 0.39 0.43 0.44 0.48
0.24 0.21 0.25 0.25 0.27 0.38 0.31 0.14 0.11 0.23 0.43 0.17 0.06 0.05 0.04 0.05 0.09 0.06 0.06 0.06 0.06 0.04 0.03 0.03 0.04 0.04 0.04 0.03 0.03 0.04 0.05 0.06 0.09 0.10 0.14 0.19 0.19 0.23 0.29 0.38 0.44 0.42 0.41 0.47
0.14 0.21 0.30 0.39 0.49 0.63 0.42 0.18 0.13 0.30 0.40 0.15 0.04 0.01 0.01 0.01 0.02 0.02 0.04 0.03 0.02 0.01 0.01 0.01 0.01 0.01 0.02 0.02 0.01 0.02 0.02 0.02 0.02 0.02 0.04 0.07 0.11 0.17 0.26 0.33 0.32 0.33 0.36 0.40
0.20 0.33 0.46 0.56 0.72 0.89 0.57 0.34 0.30 0.27 0.14 0.06 0.01 0.00 0.00 0.01 0.01 0.01 0.02 0.03 0.01 0.00 0.00 0.00 0.00 0.00 0.00 0.00 0.00 0.00 0.00 0.00 0.00 0.01 0.01 0.02 0.04 0.07 0.13 0.20 0.23 0.26 0.30 0.32
0.21 0.44 0.61 0.61 0.62 0.58 0.41 0.30 0.20 0.15 0.09 0.02 0.00 0.00 0.00 0.00 0.00 0.00 0.01 0.02 0.01 0.00 0.00 0.00 0.00 0.00 0.00 0.00 0.00 0.00 0.00 0.00 0.00 0.00 0.00 0.01 0.01 0.02 0.06 0.12 0.17 0.21 0.27 0.30
0.07 0.13 0.16 0.19 0.21 0.20 0.16 0.11 0.07 0.06 0.05 0.01 0.00 0.00 0.00 0.00 0.00 0.00 0.00 0.01 0.01 0.01 0.00 0.00 0.00 0.00 0.00 0.00 0.00 0.00 0.00 0.00 0.00 0.00 0.00 0.01 0.01 0.01 0.03 0.06 0.13 0.21 0.24 0.23
0.04 0.03 0.03 0.04 0.05 0.06 0.07 0.05 0.03 0.03 0.02 0.01 0.00 0.00 0.00 0.00 0.00 0.00 0.00 0.01 0.01 0.01 0.00 0.00 0.00 0.00 0.00 0.00 0.00 0.00 0.00 0.00 0.00 0.00 0.00 0.00 0.01 0.02 0.02 0.02 0.06 0.13 0.16 0.15
0.03 0.04 0.04 0.02 0.01 0.02 0.04 0.02 0.01 0.02 0.01 0.00 0.00 0.00 0.00 0.00 0.00 0.00 0.00 0.00 0.01 0.01 0.00 0.00 0.00 0.00 0.00 0.00 0.00 0.00 0.00 0.00 0.00 0.00 0.00 0.01 0.01 0.02 0.02 0.02 0.04 0.06 0.06 0.08